sat.trackr.live / text

‹ back to catalog

STARLINK-32573

NORAD 61725 · 2024-196U

PAYLOAD ACTIVE UNKNOWN

§ Identity

Operator
Country
US
Launch date
2024-10-30
Launch site
AFETR
Launch vehicle
Mass (kg)
RCS (m²)

Purposes: comms

External: N2YO · Heavens-Above · Gunter

§ Orbital elements

Epoch: 2026-09-21T12:10:26.945184Z

Period
93.85 min
Inclination
53.1609°
Eccentricity
0.0001540
Mean motion
15.34394693 rev/d
Perigee alt
461.7 km
Apogee alt
463.8 km
Semi-major
6,840.9 km
B*
3.2902e-5
RAAN
269.1992°
Arg perigee
79.8341°
Mean anomaly
280.2835°
Rev number
10,717

§ Raw data

STARLINK-325731 61725U 24196U   26264.50725631  .00000735  00000+0  32902-4 0  99962 61725  53.1609 269.1992 0001540  79.8341 280.2835 15.34394693107178

JSON: /api/v1/satellites/61725 · /tle

For live sub-satellite position, see the globe view (requires WebGL).

§ Visibility from observer

Set your observer location to see the next 7 days of passes ≥ 10°. The values pass through the URL so the page stays shareable.

No JS? Fill the form by hand. The geolocation button needs JavaScript.